Time,TemperatureF,DewpointF,PressureIn,WindDirection,WindDirectionDegrees,WindSpeedMPH,WindSpeedGustMPH,Humidity,HourlyPrecipIn,Conditions,Clouds,dailyrainin,SoftwareType,DateUTC
2013-04-18 00:08:00,42.1,41.0,29.96,ESE,106,14.0,-999.0,95,-99.99,,,0.00,weatherlink.com 1.10,2013-04-18 04:08:00,
2013-04-18 00:23:00,42.2,41.0,29.95,ESE,103,15.0,-999.0,95,-99.99,,,0.01,weatherlink.com 1.10,2013-04-18 04:23:00,
2013-04-18 00:38:00,42.2,41.0,29.90,East,88,19.0,-999.0,95,-99.99,,,0.02,weatherlink.com 1.10,2013-04-18 04:38:00,
2013-04-18 00:53:00,42.3,41.0,29.86,East,81,12.0,-999.0,96,-99.99,,,0.03,weatherlink.com 1.10,2013-04-18 04:53:00,
2013-04-18 01:08:00,42.5,43.0,29.87,East,82,11.0,-999.0,100,-99.99,,,0.03,weatherlink.com 1.10,2013-04-18 05:08:00,
2013-04-18 01:23:00,42.5,42.0,29.87,ENE,74,7.0,-999.0,96,-99.99,,,0.05,weatherlink.com 1.10,2013-04-18 05:23:00,
2013-04-18 01:38:00,42.6,42.0,29.89,East,86,10.0,-999.0,96,-99.99,,,0.05,weatherlink.com 1.10,2013-04-18 05:38:00,
2013-04-18 01:53:00,42.7,42.0,29.91,East,85,10.0,-999.0,96,-99.99,,,0.06,weatherlink.com 1.10,2013-04-18 05:53:00,
2013-04-18 02:08:00,42.6,42.0,29.90,ENE,71,6.0,-999.0,96,-99.99,,,0.07,weatherlink.com 1.10,2013-04-18 06:08:00,
2013-04-18 02:23:00,42.5,42.0,29.88,NE,48,5.0,-999.0,96,-99.99,,,0.10,weatherlink.com 1.10,2013-04-18 06:23:00,
2013-04-18 02:38:00,42.3,41.0,29.87,NE,44,10.0,-999.0,96,-99.99,,,0.12,weatherlink.com 1.10,2013-04-18 06:38:00,
2013-04-18 02:53:00,42.3,41.0,29.87,ENE,59,6.0,-999.0,96,-99.99,,,0.14,weatherlink.com 1.10,2013-04-18 06:53:00,
2013-04-18 03:08:00,42.4,41.0,29.86,NE,51,6.0,-999.0,96,-99.99,,,0.18,weatherlink.com 1.10,2013-04-18 07:08:00,
2013-04-18 03:23:00,42.5,42.0,29.85,ENE,73,8.0,-999.0,96,-99.99,,,0.23,weatherlink.com 1.10,2013-04-18 07:23:00,
2013-04-18 03:38:00,42.6,42.0,29.81,ENE,73,8.0,-999.0,96,-99.99,,,0.26,weatherlink.com 1.10,2013-04-18 07:38:00,
2013-04-18 03:53:00,42.8,42.0,29.81,East,83,8.0,-999.0,97,-99.99,,,0.33,weatherlink.com 1.10,2013-04-18 07:53:00,
2013-04-18 04:08:00,42.8,42.0,29.80,ENE,68,8.0,-999.0,97,-99.99,,,0.39,weatherlink.com 1.10,2013-04-18 08:08:00,
2013-04-18 04:23:00,42.9,42.0,29.79,East,85,7.0,-999.0,97,-99.99,,,0.45,weatherlink.com 1.10,2013-04-18 08:23:00,
2013-04-18 04:38:00,43.1,42.0,29.79,ESE,113,11.0,-999.0,97,-99.99,,,0.51,weatherlink.com 1.10,2013-04-18 08:38:00,
2013-04-18 04:53:00,43.4,43.0,29.78,East,92,12.0,-999.0,97,-99.99,,,0.56,weatherlink.com 1.10,2013-04-18 08:53:00,
2013-04-18 05:08:00,43.4,43.0,29.75,East,94,11.0,-999.0,97,-99.99,,,0.59,weatherlink.com 1.10,2013-04-18 09:08:00,
2013-04-18 05:23:00,43.8,43.0,29.75,East,100,15.0,-999.0,97,-99.99,,,0.64,weatherlink.com 1.10,2013-04-18 09:23:00,
2013-04-18 05:38:00,44.3,44.0,29.75,SE,124,11.0,-999.0,97,-99.99,,,0.69,weatherlink.com 1.10,2013-04-18 09:38:00,
2013-04-18 05:53:00,44.5,44.0,29.73,NE,46,6.0,-999.0,97,-99.99,,,0.77,weatherlink.com 1.10,2013-04-18 09:53:00,
2013-04-18 06:08:00,44.5,44.0,29.73,ENE,72,4.0,-999.0,97,-99.99,,,0.80,weatherlink.com 1.10,2013-04-18 10:08:00,
2013-04-18 06:23:00,44.5,44.0,29.70,ENE,73,5.0,-999.0,97,-99.99,,,0.84,weatherlink.com 1.10,2013-04-18 10:23:00,
2013-04-18 06:38:00,44.7,44.0,29.66,ENE,69,6.0,-999.0,97,-99.99,,,0.88,weatherlink.com 1.10,2013-04-18 10:38:00,
2013-04-18 06:53:00,44.9,44.0,29.71,NNW,330,6.0,-999.0,97,-99.99,,,0.97,weatherlink.com 1.10,2013-04-18 10:53:00,
2013-04-18 07:08:00,45.0,44.0,29.70,ENE,59,2.0,-999.0,97,-99.99,,,1.11,weatherlink.com 1.10,2013-04-18 11:08:00,
2013-04-18 07:23:00,45.2,44.0,29.73,ENE,59,0.0,-999.0,97,-99.99,,,1.14,weatherlink.com 1.10,2013-04-18 11:23:00,
2013-04-18 07:38:00,45.2,44.0,29.68,ENE,74,5.0,-999.0,97,-99.99,,,1.18,weatherlink.com 1.10,2013-04-18 11:38:00,
2013-04-18 07:53:00,45.4,45.0,29.67,East,81,6.0,-999.0,97,-99.99,,,1.18,weatherlink.com 1.10,2013-04-18 11:53:00,
2013-04-18 08:08:00,45.8,45.0,29.68,ESE,112,8.0,-999.0,97,-99.99,,,1.19,weatherlink.com 1.10,2013-04-18 12:08:00,
2013-04-18 08:23:00,47.7,47.0,29.65,ESE,105,11.0,-999.0,98,-99.99,,,1.20,weatherlink.com 1.10,2013-04-18 12:23:00,
2013-04-18 08:38:00,48.4,48.0,29.66,ESE,113,7.0,-999.0,98,-99.99,,,1.20,weatherlink.com 1.10,2013-04-18 12:38:00,
2013-04-18 08:53:00,48.9,48.0,29.66,ESE,113,5.0,-999.0,98,-99.99,,,1.21,weatherlink.com 1.10,2013-04-18 12:53:00,
2013-04-18 09:08:00,49.4,49.0,29.62,ESE,116,9.0,-999.0,98,-99.99,,,1.25,weatherlink.com 1.10,2013-04-18 13:08:00,
2013-04-18 09:23:00,49.7,49.0,29.60,ESE,112,8.0,-999.0,98,-99.99,,,1.28,weatherlink.com 1.10,2013-04-18 13:23:00,
2013-04-18 09:38:00,50.0,50.0,29.59,ESE,103,8.0,-999.0,98,-99.99,,,1.28,weatherlink.com 1.10,2013-04-18 13:38:00,
2013-04-18 09:53:00,50.4,50.0,29.58,ESE,112,7.0,-999.0,98,-99.99,,,1.28,weatherlink.com 1.10,2013-04-18 13:53:00,
2013-04-18 10:08:00,50.7,50.0,29.58,ESE,118,4.0,-999.0,98,-99.99,,,1.30,weatherlink.com 1.10,2013-04-18 14:08:00,
2013-04-18 10:23:00,50.8,50.0,29.56,ESE,115,7.0,-999.0,98,-99.99,,,1.30,weatherlink.com 1.10,2013-04-18 14:23:00,
2013-04-18 10:38:00,50.9,50.0,29.54,ESE,107,11.0,-999.0,98,-99.99,,,1.31,weatherlink.com 1.10,2013-04-18 14:38:00,
2013-04-18 10:53:00,51.3,51.0,29.53,SE,143,4.0,-999.0,98,-99.99,,,1.31,weatherlink.com 1.10,2013-04-18 14:53:00,
2013-04-18 11:08:00,53.4,53.0,29.56,South,184,12.0,-999.0,98,-99.99,,,1.31,weatherlink.com 1.10,2013-04-18 15:08:00,
2013-04-18 11:23:00,53.7,53.0,29.55,WNW,286,0.0,-999.0,98,-99.99,,,1.31,weatherlink.com 1.10,2013-04-18 15:23:00,
2013-04-18 11:38:00,54.1,54.0,29.53,SE,139,2.0,-999.0,98,-99.99,,,1.31,weatherlink.com 1.10,2013-04-18 15:38:00,
2013-04-18 11:53:00,54.1,54.0,29.54,SSW,196,2.0,-999.0,98,-99.99,,,1.45,weatherlink.com 1.10,2013-04-18 15:53:00,
2013-04-18 12:08:00,54.3,54.0,29.54,SE,137,0.0,-999.0,98,-99.99,,,1.46,weatherlink.com 1.10,2013-04-18 16:08:00,
2013-04-18 12:23:00,54.7,54.0,29.54,SE,137,0.0,-999.0,98,-99.99,,,1.46,weatherlink.com 1.10,2013-04-18 16:23:00,
2013-04-18 12:38:00,55.0,55.0,29.53,SE,137,1.0,-999.0,98,-99.99,,,1.46,weatherlink.com 1.10,2013-04-18 16:38:00,
2013-04-18 12:53:00,55.1,55.0,29.53,SE,139,0.0,-999.0,98,-99.99,,,1.47,weatherlink.com 1.10,2013-04-18 16:53:00,
2013-04-18 13:08:00,55.9,55.0,29.52,SE,139,6.0,-999.0,98,-99.99,,,1.48,weatherlink.com 1.10,2013-04-18 17:08:00,
2013-04-18 13:23:00,56.2,56.0,29.51,South,182,3.0,-999.0,98,-99.99,,,1.48,weatherlink.com 1.10,2013-04-18 17:23:00,
2013-04-18 13:38:00,56.8,56.0,29.53,SSW,203,7.0,-999.0,98,-99.99,,,1.48,weatherlink.com 1.10,2013-04-18 17:38:00,
2013-04-18 13:53:00,57.5,57.0,29.54,SSW,202,5.0,-999.0,98,-99.99,,,1.49,weatherlink.com 1.10,2013-04-18 17:53:00,
2013-04-18 14:08:00,58.2,58.0,29.55,SW,233,7.0,-999.0,98,-99.99,,,1.50,weatherlink.com 1.10,2013-04-18 18:08:00,
2013-04-18 14:23:00,58.7,58.0,29.55,SW,218,6.0,-999.0,98,-99.99,,,1.50,weatherlink.com 1.10,2013-04-18 18:23:00,
2013-04-18 14:38:00,58.8,58.0,29.56,SW,230,9.0,-999.0,98,-99.99,,,1.51,weatherlink.com 1.10,2013-04-18 18:38:00,
2013-04-18 14:53:00,58.3,58.0,29.57,SW,215,18.0,-999.0,98,-99.99,,,1.52,weatherlink.com 1.10,2013-04-18 18:53:00,
2013-04-18 15:08:00,57.6,57.0,29.57,SW,230,17.0,-999.0,98,-99.99,,,1.52,weatherlink.com 1.10,2013-04-18 19:08:00,
2013-04-18 15:23:00,56.4,56.0,29.58,SW,232,15.0,-999.0,97,-99.99,,,1.52,weatherlink.com 1.10,2013-04-18 19:23:00,
2013-04-18 15:38:00,55.9,55.0,29.58,SW,225,12.0,-999.0,97,-99.99,,,1.52,weatherlink.com 1.10,2013-04-18 19:38:00,
2013-04-18 15:53:00,55.9,55.0,29.57,SW,217,17.0,-999.0,98,-99.99,,,1.52,weatherlink.com 1.10,2013-04-18 19:53:00,
2013-04-18 16:08:00,56.0,56.0,29.56,SW,217,12.0,-999.0,98,-99.99,,,1.52,weatherlink.com 1.10,2013-04-18 20:08:00,
2013-04-18 16:23:00,55.6,55.0,29.56,SSW,208,7.0,-999.0,98,-99.99,,,1.52,weatherlink.com 1.10,2013-04-18 20:23:00,
2013-04-18 16:38:00,55.7,55.0,29.56,SW,215,7.0,-999.0,98,-99.99,,,1.52,weatherlink.com 1.10,2013-04-18 20:38:00,
2013-04-18 16:53:00,55.5,55.0,29.55,SW,226,7.0,-999.0,98,-99.99,,,1.52,weatherlink.com 1.10,2013-04-18 20:53:00,
2013-04-18 17:08:00,56.0,56.0,29.54,SSW,201,8.0,-999.0,98,-99.99,,,1.52,weatherlink.com 1.10,2013-04-18 21:08:00,
2013-04-18 17:23:00,55.9,55.0,29.55,SSW,192,4.0,-999.0,98,-99.99,,,1.52,weatherlink.com 1.10,2013-04-18 21:23:00,
2013-04-18 17:53:00,56.8,56.0,29.53,SSW,193,8.0,-999.0,98,-99.99,,,1.52,weatherlink.com 1.10,2013-04-18 21:53:00,
2013-04-18 18:08:00,57.2,57.0,29.52,South,186,4.0,-999.0,98,-99.99,,,1.52,weatherlink.com 1.10,2013-04-18 22:08:00,
2013-04-18 18:23:00,58.3,58.0,29.51,South,169,9.0,-999.0,98,-99.99,,,1.52,weatherlink.com 1.10,2013-04-18 22:23:00,
2013-04-18 18:38:00,59.3,59.0,29.50,SSE,165,8.0,-999.0,98,-99.99,,,1.52,weatherlink.com 1.10,2013-04-18 22:38:00,
2013-04-18 18:53:00,60.2,59.0,29.49,SSE,167,12.0,-999.0,96,-99.99,,,1.52,weatherlink.com 1.10,2013-04-18 22:53:00,
2013-04-18 19:08:00,60.8,59.0,29.48,SSE,161,14.0,-999.0,93,-99.99,,,1.52,weatherlink.com 1.10,2013-04-18 23:08:00,
2013-04-18 19:23:00,61.3,59.0,29.44,SE,142,11.0,-999.0,91,-99.99,,,1.52,weatherlink.com 1.10,2013-04-18 23:23:00,
2013-04-18 19:38:00,61.5,59.0,29.45,South,189,11.0,-999.0,90,-99.99,,,1.52,weatherlink.com 1.10,2013-04-18 23:38:00,
2013-04-18 19:53:00,61.4,58.0,29.43,SSE,163,6.0,-999.0,89,-99.99,,,1.52,weatherlink.com 1.10,2013-04-18 23:53:00,
2013-04-18 20:08:00,60.8,58.0,29.46,SSW,207,6.0,-999.0,90,-99.99,,,1.52,weatherlink.com 1.10,2013-04-19 00:08:00,
2013-04-18 20:23:00,60.6,58.0,29.45,South,180,4.0,-999.0,90,-99.99,,,1.52,weatherlink.com 1.10,2013-04-19 00:23:00,
2013-04-18 20:38:00,60.2,57.0,29.46,SSW,202,4.0,-999.0,90,-99.99,,,1.52,weatherlink.com 1.10,2013-04-19 00:38:00,
2013-04-18 20:53:00,60.3,57.0,29.48,SW,227,2.0,-999.0,89,-99.99,,,1.52,weatherlink.com 1.10,2013-04-19 00:53:00,
2013-04-18 21:08:00,60.2,57.0,29.47,SSW,213,4.0,-999.0,88,-99.99,,,1.52,weatherlink.com 1.10,2013-04-19 01:08:00,
2013-04-18 21:23:00,60.8,57.0,29.48,SSW,203,8.0,-999.0,86,-99.99,,,1.52,weatherlink.com 1.10,2013-04-19 01:23:00,
2013-04-18 21:38:00,60.2,57.0,29.47,South,176,6.0,-999.0,88,-99.99,,,1.52,weatherlink.com 1.10,2013-04-19 01:38:00,
2013-04-18 21:53:00,60.5,57.0,29.46,SSE,166,5.0,-999.0,87,-99.99,,,1.52,weatherlink.com 1.10,2013-04-19 01:53:00,
2013-04-18 22:08:00,60.5,57.0,29.47,South,180,10.0,-999.0,87,-99.99,,,1.52,weatherlink.com 1.10,2013-04-19 02:08:00,
2013-04-18 22:23:00,61.0,57.0,29.45,South,175,9.0,-999.0,86,-99.99,,,1.52,weatherlink.com 1.10,2013-04-19 02:23:00,
2013-04-18 22:38:00,60.7,57.0,29.45,South,186,10.0,-999.0,87,-99.99,,,1.52,weatherlink.com 1.10,2013-04-19 02:38:00,
2013-04-18 22:53:00,60.6,57.0,29.44,South,191,11.0,-999.0,87,-99.99,,,1.52,weatherlink.com 1.10,2013-04-19 02:53:00,
2013-04-18 23:08:00,60.1,57.0,29.44,South,169,18.0,-999.0,89,-99.99,,,1.52,weatherlink.com 1.10,2013-04-19 03:08:00,
2013-04-18 23:23:00,59.7,57.0,29.42,South,182,13.0,-999.0,91,-99.99,,,1.52,weatherlink.com 1.10,2013-04-19 03:23:00,
2013-04-18 23:38:00,59.8,57.0,29.41,SSE,162,11.0,-999.0,90,-99.99,,,1.52,weatherlink.com 1.10,2013-04-19 03:38:00,
2013-04-18 23:53:00,59.6,57.0,29.40,SSE,159,17.0,-999.0,91,-99.99,,,1.52,weatherlink.com 1.10,2013-04-19 03:53:00,